Home   Weather   Kingston   Past weeks

Flag for Canada Past Weather in Kingston, Ontario, Canada — Yesterday and Last 2 Weeks

Now
66 °F

Partly cloudy.


Feels Like: 66 °F
Forecast: 65 / 73 °F
Wind: 5 mph from Southeast

Location: Kingston

Current Time: Jun 23, 2017 at 1:17:13 am

Latest Report: Jun 22, 2017 at 11:00 pm


Visibility: 15 mi

Pressure: 29.79 "Hg

Humidity: 83%

Dew Point: 61 °F

Location of KingstonLocation

Past Weather in Kingston — Graph

°F

Kingston Temperature Yesterday

Maximum temperature yesterday: 68 °F (at 4:00 pm)
Minimum temperature yesterday: 57 °F (at 6:00 am)
Average temperature yesterday: 65 °F

High & Low Weather Summary for the Past Weeks

 TemperatureHumidityPressure
High81 °F (Jun 12, 3:00 pm)100% (Jun 10, 6:00 am)30.14 "Hg (Jun 10, 6:00 am)
Low54 °F (Jun 8, 6:00 am)29% (Jun 14, 2:00 pm)29.57 "Hg (Jun 18, 6:00 pm)
Average67 °F76%29.86 "Hg
* Reported Jun 7 11:00 pm — Jun 22 11:00 pm, Kingston. Weather by CustomWeather, © 2017

Note: Actual official high and low records may vary slightly from our data, if they occured in-between our weather recording intervals... More about our weather records

Advertising

Kingston Weather History for the Previous 24 Hours

Scroll right to see more
 ConditionsComfort  
Time TempWeatherWind HumidityBarometerVisibility
11:00 pm
Thu, Jun 22
66 °FPartly cloudy.5 mph83%29.79 "Hg15 mi
10:00 pm64 °FOvercast.2 mph88%29.81 "Hg15 mi
9:00 pm66 °FMostly cloudy.3 mph83%29.81 "Hg15 mi
8:00 pm66 °FBroken clouds.3 mph78%29.83 "Hg15 mi
7:00 pm68 °FPartly sunny.6 mph69%29.84 "Hg15 mi
6:00 pm66 °FOvercast.6 mph78%29.86 "Hg15 mi
5:00 pm66 °FOvercast.8 mph83%29.88 "Hg15 mi
4:00 pm68 °FMostly cloudy.10 mph73%29.90 "Hg15 mi
3:00 pm66 °FBroken clouds.8 mph83%29.90 "Hg15 mi
2:00 pm66 °FBroken clouds.13 mph88%29.91 "Hg15 mi
1:00 pm64 °FMostly cloudy.12 mph94%29.95 "Hg15 mi
12:00 pm64 °FBroken clouds.9 mph88%29.97 "Hg15 mi
11:00 am64 °FPartly sunny.9 mph78%29.97 "Hg15 mi
10:00 am66 °FPartly sunny.5 mph68%29.98 "Hg15 mi
9:00 am66 °FScattered clouds.6 mph64%29.98 "Hg15 mi
8:00 am61 °FScattered clouds.6 mph83%29.98 "Hg15 mi
7:00 am61 °FPassing clouds.3 mph77%29.98 "Hg15 mi
6:00 am57 °FPassing clouds.7 mph82%29.98 "Hg15 mi
Weather by CustomWeather, © 2017

See weather overviewHow to use our weather pages